GW4047 Weather Reports


time (UTC)temp
C
wind
direction
speed
KPH
gust
KPH
rain 1hr
cm
rain 24hr
cm
rain mn
cm
humidity
%
barometer
mb
20260506081014 15 206 3.2 6.4 0.00 0.00 0.00 73 1008.9
20260506080511 15 81 3.2 4.8 0.00 0.00 0.00 75 1008.9
20260506073455 15 106 0.0 3.2 0.00 0.00 0.00 79 1008.8
20260506072952 15 110 3.2 4.8 0.00 0.00 0.00 79 1008.9
20260506072449 15 50 0.0 4.8 0.00 0.00 0.00 75 1009.1
20260506071947 15 75 1.6 4.8 0.00 0.00 0.00 77 1009.0
20260506071445 15 157 0.0 1.6 0.00 0.00 0.00 79 1009.0
20260506070941 15 65 0.0 3.2 0.00 0.00 0.00 77 1009.2
20260506070438 15 37 0.0 3.2 0.00 0.00 0.00 75 1009.5
20260506062416 15 138 0.0 3.2 0.00 0.00 0.00 68 1009.5
20260506061911 15 140 0.0 1.6 0.00 0.00 0.00 71 1009.5
20260506061408 15 88 1.6 3.2 0.00 0.00 0.00 73 1009.6
20260506060906 15 127 0.0 3.2 0.00 0.00 0.00 74 1009.7
20260506060404 15 91 1.6 4.8 0.00 0.00 0.00 74 1009.7
20260506051336 13 121 0.0 3.2 0.00 0.00 0.00 79 1010.1
20260506050833 13 80 1.6 4.8 0.00 0.00 0.00 79 1010.4
20260506050331 13 86 6.4 6.4 0.00 0.00 0.00 83 1010.4
20260506044821 13 128 1.6 4.8 0.00 0.00 0.00 85 1010.2
20260506044319 13 153 3.2 4.8 0.00 0.00 0.00 84 1010.2
20260506043816 13 198 3.2 6.4 0.00 0.00 0.00 85 1010.2
20260506043313 13 176 3.2 4.8 0.00 0.00 0.00 84 1009.9
20260506042812 13 151 3.2 3.2 0.00 0.00 0.00 84 1010.2
20260506042310 13 80 0.0 3.2 0.00 0.00 0.00 84 1010.3
20260506041809 14 34 0.0 3.2 0.00 0.00 0.00 84 1010.4
20260506041305 14 174 4.8 4.8 0.00 0.00 0.00 82 1010.4
20260506040802 14 180 3.2 4.8 0.00 0.00 0.00 82 1010.4
20260506040259 14 188 0.0 4.8 0.00 0.00 0.00 82 1010.4
20260506035756 14 44 0.0 4.8 0.00 0.00 0.00 82 1010.4
20260506035253 14 155 3.2 6.4 0.00 0.00 0.00 84 1010.7
20260506034750 14 174 1.6 4.8 0.00 0.00 0.00 83 1010.4
20260506034247 14 87 1.6 4.8 0.00 0.00 0.00 83 1010.4
20260506033744 15 108 1.6 4.8 0.00 0.00 0.00 83 1010.3
20260506033241 15 85 3.2 4.8 0.00 0.00 0.00 82 1010.5
20260506032738 15 121 0.0 6.4 0.00 0.00 0.00 82 1010.4
20260506032235 14 134 4.8 6.4 0.00 0.00 0.00 83 1010.5
20260506031726 14 126 3.2 4.8 0.00 0.00 0.00 83 1010.2
20260506031224 15 122 3.2 6.4 0.00 0.00 0.00 82 1010.3
20260506030722 15 136 3.2 6.4 0.00 0.00 0.00 82 1010.3
20260506030219 15 161 3.2 6.4 0.00 0.00 0.00 82 1010.4
20260506025716 15 111 1.6 4.8 0.00 0.00 0.00 82 1010.4
20260506025212 15 153 1.6 8.0 0.00 0.00 0.00 82 1010.5
20260506024709 15 91 1.6 8.0 0.00 0.00 0.00 81 1010.3
20260506024205 15 114 4.8 4.8 0.00 0.00 0.00 80 1010.3
20260506023702 15 130 4.8 6.4 0.00 0.00 0.00 80 1010.4
20260506023159 15 188 1.6 6.4 0.00 0.00 0.00 79 1010.6
20260506022656 16 114 3.2 6.4 0.00 0.00 0.00 77 1010.2
20260506022154 16 133 4.8 6.4 0.00 0.00 0.00 77 1010.5
20260506021651 16 118 0.0 3.2 0.00 0.00 0.00 76 1010.6
20260506021148 16 181 3.2 4.8 0.00 0.00 0.00 75 1010.5
20260506020645 17 133 3.2 4.8 0.00 0.00 0.00 73 1010.5
20260506020143 17 193 3.2 4.8 0.00 0.00 0.00 71 1010.4
20260506015640 17 107 1.6 3.2 0.00 0.00 0.00 71 1010.5
20260506015137 17 153 1.6 3.2 0.00 0.00 0.00 71 1010.4
20260506014635 17 126 3.2 4.8 0.00 0.00 0.00 72 1010.3
20260506014130 17 118 3.2 4.8 0.00 0.00 0.00 72 1010.2
20260506013628 18 153 3.2 4.8 0.00 0.00 0.00 70 1010.3
20260506013125 18 103 1.6 4.8 0.00 0.00 0.00 68 1010.1
20260506012621 18 124 0.0 3.2 0.00 0.00 0.00 68 1010.2
20260506012117 18 166 0.0 3.2 0.00 0.00 0.00 67 1010.1
20260506011610 18 66 0.0 3.2 0.00 0.00 0.00 67 1010.1
20260506011106 18 193 0.0 3.2 0.00 0.00 0.00 66 1009.7
20260506010605 19 103 0.0 3.2 0.00 0.00 0.00 64 1009.8
20260506005559 20 96 1.6 4.8 0.00 0.00 0.00 63 1009.5
20260506005055 20 155 1.6 4.8 0.00 0.00 0.00 60 1009.5
20260506004552 20 100 1.6 3.2 0.00 0.00 0.00 58 1009.4
20260506004048 20 203 0.0 1.6 0.00 0.00 0.00 59 1009.3
20260506003545 20 82 4.8 6.4 0.00 0.00 0.00 58 1009.5
20260506003041 21 109 3.2 3.2 0.00 0.00 0.00 57 1009.3
20260506002537 21 117 1.6 3.2 0.00 0.00 0.00 56 1009.3
20260506002033 21 84 0.0 1.6 0.00 0.00 0.00 54 1009.1
20260506001530 22 204 1.6 4.8 0.00 0.00 0.00 53 1009.3
20260506001027 22 199 0.0 3.2 0.00 0.00 0.00 52 1009.1
20260506000525 22 219 1.6 6.4 0.00 0.00 0.00 51 1009.2
20260506000022 22 139 0.0 4.8 0.00 0.00 0.00 50 1009.2
20260505235520 23 228 3.2 4.8 0.00 0.00 0.00 50 1009.2
20260505235016 23 87 1.6 8.0 0.00 0.00 0.00 49 1008.9
20260505234513 23 160 0.0 6.4 0.00 0.00 0.00 48 1008.9
20260505234010 23 73 3.2 6.4 0.00 0.00 0.00 47 1008.9
20260505233508 23 122 8.0 11.3 0.00 0.00 0.00 47 1009.0
20260505233005 23 104 6.4 8.0 0.00 0.00 0.00 49 1008.8
20260505232503 23 121 0.0 12.9 0.00 0.00 0.00 49 1008.8
20260505232000 23 17 1.6 8.0 0.00 0.00 0.00 50 1008.7
20260505231457 23 226 0.0 12.9 0.00 0.00 0.00 48 1008.9
20260505230955 23 153 3.2 8.0 0.00 0.00 0.00 48 1008.8
20260505230452 23 196 4.8 6.4 0.00 0.00 0.00 47 1008.7
20260505225948 23 79 1.6 11.3 0.00 0.00 0.00 47 1008.6
20260505225446 23 172 1.6 11.3 0.00 0.00 0.00 48 1008.5
20260505224942 23 322 1.6 14.5 0.00 0.00 0.00 47 1008.6
20260505224439 23 156 4.8 11.3 0.00 0.00 0.00 46 1008.7
20260505223936 24 113 1.6 8.0 0.00 0.00 0.00 46 1008.8
20260505223433 24 122 4.8 11.3 0.00 0.00 0.00 46 1008.6
20260505222929 24 143 9.7 19.3 0.00 0.00 0.00 45 1008.6
20260505222425 24 130 3.2 9.7 0.00 0.00 0.00 45 1008.4
20260505221921 24 156 6.4 16.1 0.00 0.00 0.00 45 1008.5
20260505221419 25 128 4.8 11.3 0.00 0.00 0.00 45 1008.3
20260505220916 24 120 9.7 17.7 0.00 0.00 0.00 45 1008.4
20260505220413 24 117 3.2 6.4 0.00 0.00 0.00 45 1008.4
20260505215910 24 115 12.9 16.1 0.00 0.00 0.00 45 1008.3
20260505215408 24 261 1.6 8.0 0.00 0.00 0.00 44 1008.3
20260505214906 24 108 6.4 8.0 0.00 0.00 0.00 46 1008.3
20260505214403 24 167 3.2 11.3 0.00 0.00 0.00 45 1008.4
20260505213900 24 76 4.8 11.3 0.00 0.00 0.00 46 1008.4
20260505213358 25 299 1.6 17.7 0.00 0.00 0.00 45 1008.4
20260505212854 25 136 4.8 30.6 0.00 0.00 0.00 44 1008.3
20260505212351 25 137 14.5 38.6 0.00 0.00 0.00 43 1008.5
20260505211847 25 100 3.2 17.7 0.00 0.00 0.00 43 1008.5
20260505211345 25 87 3.2 27.4 0.00 0.00 0.00 41 1008.4
20260505210841 25 127 6.4 24.1 0.00 0.00 0.00 42 1008.4
20260505210339 25 123 11.3 24.1 0.00 0.00 0.00 41 1008.1
20260505205835 25 128 11.3 19.3 0.00 0.00 0.00 41 1008.1
20260505205334 25 113 14.5 30.6 0.00 0.00 0.00 41 1008.1
20260505204830 25 86 9.7 20.9 0.00 0.00 0.00 41 1008.1
20260505204328 25 117 11.3 17.7 0.00 0.00 0.00 41 1008.0
20260505203825 25 115 8.0 33.8 0.00 0.00 0.00 40 1008.2
20260505203321 25 113 9.7 24.1 0.00 0.00 0.00 41 1008.1
20260505202818 25 134 12.9 25.7 0.00 0.00 0.00 40 1008.1
20260505202314 26 224 6.4 32.2 0.00 0.00 0.00 40 1008.0
20260505201811 26 158 12.9 20.9 0.00 0.00 0.00 40 1007.8
20260505201308 26 131 12.9 22.5 0.00 0.00 0.00 40 1007.8
20260505200807 26 288 8.0 27.4 0.00 0.00 0.00 40 1007.9
20260505200303 26 72 4.8 25.7 0.00 0.00 0.00 40 1007.9
20260505195758 26 58 19.3 27.4 0.00 0.00 0.00 40 1007.9
20260505195256 26 74 61.2 61.2 0.00 0.00 0.00 39 1008.0
20260505194753 26 113 9.7 27.4 0.00 0.00 0.00 39 1007.9
20260505194250 26 110 6.4 24.1 0.00 0.00 0.00 40 1007.9
20260505193745 26 85 6.4 35.4 0.00 0.00 0.00 39 1008.0
20260505193243 27 132 8.0 37.0 0.00 0.00 0.00 38 1008.0
20260505192741 27 105 6.4 24.1 0.00 0.00 0.00 39 1007.9
20260505192239 27 82 17.7 41.8 0.00 0.00 0.00 39 1008.0
20260505191737 27 24 3.2 20.9 0.00 0.00 0.00 39 1008.1
20260505191235 27 87 17.7 40.2 0.00 0.00 0.00 39 1008.1
20260505190731 27 106 8.0 38.6 0.00 0.00 0.00 39 1008.4
20260505190231 27 125 8.0 37.0 0.00 0.00 0.00 39 1008.4
20260505185728 27 115 14.5 48.3 0.00 0.00 0.00 38 1008.5
20260505185224 26 92 9.7 35.4 0.00 0.00 0.00 40 1008.7
20260505184720 26 163 8.0 41.8 0.00 0.00 0.00 41 1008.7
20260505184218 27 89 16.1 19.3 0.00 0.00 0.00 40 1008.7
20260505183714 27 107 11.3 29.0 0.00 0.00 0.00 39 1008.9
20260505183212 27 121 6.4 24.1 0.00 0.00 0.00 38 1008.8
20260505182708 27 96 8.0 33.8 0.00 0.00 0.00 39 1008.9
20260505182205 27 94 12.9 29.0 0.00 0.00 0.00 39 1009.2
20260505181701 27 303 17.7 29.0 0.00 0.00 0.00 39 1009.2
20260505181159 27 107 6.4 32.2 0.00 0.00 0.00 39 1009.2
20260505180655 27 134 11.3 32.2 0.00 0.00 0.00 37 1009.3
20260505180153 26 116 11.3 27.4 0.00 0.00 0.00 39 1009.3
20260505175648 27 114 8.0 38.6 0.00 0.00 0.00 40 1009.7
20260505175145 27 114 16.1 22.5 0.00 0.00 0.00 41 1009.5
20260505174642 27 111 16.1 29.0 0.00 0.00 0.00 42 1009.3
20260505174138 27 254 3.2 33.8 0.00 0.00 0.00 42 1009.4
20260505173635 27 154 4.8 24.1 0.00 0.00 0.00 43 1009.6
20260505173131 27 95 24.1 24.1 0.00 0.00 0.00 42 1009.6
20260505172629 27 291 4.8 29.0 0.00 0.00 0.00 44 1009.6
20260505172126 26 75 20.9 22.5 0.00 0.00 0.00 44 1009.2
20260505171620 26 60 11.3 20.9 0.00 0.00 0.00 45 1009.4
20260505171118 26 197 8.0 24.1 0.00 0.00 0.00 45 1009.5
20260505170615 26 214 4.8 20.9 0.00 0.00 0.00 45 1009.7
20260505170111 26 130 8.0 20.9 0.00 0.00 0.00 45 1009.9
20260505165606 26 246 40.2 40.2 0.00 0.00 0.00 45 1009.9
20260505165102 25 176 4.8 32.2 0.00 0.00 0.00 46 1009.8
20260505164558 26 185 20.9 27.4 0.00 0.00 0.00 45 1009.9
20260505164056 25 41 4.8 35.4 0.00 0.00 0.00 46 1010.1
20260505163554 26 219 27.4 38.6 0.00 0.00 0.00 45 1010.1
20260505163051 26 122 3.2 25.7 0.00 0.00 0.00 47 1009.9
20260505162544 25 224 16.1 35.4 0.00 0.00 0.00 46 1010.3
20260505162041 25 170 22.5 35.4 0.00 0.00 0.00 47 1010.2
20260505161538 25 112 16.1 32.2 0.00 0.00 0.00 46 1010.2
20260505161035 25 222 9.7 25.7 0.00 0.00 0.00 47 1010.3
20260505160533 26 190 14.5 38.6 0.00 0.00 0.00 45 1010.2
20260505153004 25 227 9.7 37.0 0.00 0.00 0.00 48 1010.7
20260505152501 25 181 8.0 25.7 0.00 0.00 0.00 48 1010.7
20260505151955 25 167 11.3 22.5 0.00 0.00 0.00 49 1010.7
20260505151445 24 165 41.8 41.8 0.00 0.00 0.00 50 1010.8
20260505150942 24 171 3.2 25.7 0.00 0.00 0.00 51 1010.6
20260505150434 24 271 11.3 19.3 0.00 0.00 0.00 51 1010.8
20260505140352 22 202 4.8 20.9 0.00 0.00 0.00 55 1011.1
20260505124806 19 171 3.2 11.3 0.00 0.00 0.00 62 1011.6
20260505124303 19 341 4.8 19.3 0.00 0.00 0.00 63 1011.7
20260505123758 19 71 4.8 11.3 0.00 0.00 0.00 66 1011.6
20260505123255 18 116 3.2 9.7 0.00 0.00 0.00 65 1011.7
20260505122751 17 41 4.8 9.7 0.00 0.00 0.00 69 1011.7
20260505122249 18 159 6.4 11.3 0.00 0.00 0.00 67 1011.6
20260505121745 18 217 3.2 14.5 0.00 0.00 0.00 67 1011.8
20260505121242 18 340 3.2 11.3 0.00 0.00 0.00 68 1011.7
20260505120738 17 84 1.6 8.0 0.00 0.00 0.00 72 1011.8
20260505120235 17 156 3.2 9.7 0.00 0.00 0.00 72 1011.8
20260505115733 17 54 1.6 8.0 0.00 0.00 0.00 75 1011.6
20260505115231 16 24 3.2 8.0 0.00 0.00 0.00 79 1011.5
20260505114728 15 63 1.6 3.2 0.00 0.00 0.00 85 1011.4
20260505114224 15 116 1.6 3.2 0.00 0.00 0.00 84 1011.4
20260505113721 15 61 3.2 4.8 0.00 0.00 0.00 86 1011.4
20260505113217 13 94 1.6 3.2 0.00 0.00 0.00 87 1011.5
20260505112713 12 96 1.6 3.2 0.00 0.00 0.00 94 1011.5
20260505112211 12 50 1.6 3.2 0.00 0.00 0.00 97 1011.4
20260505111706 12 71 1.6 3.2 0.00 0.00 0.00 99 1011.4
20260505111202 11 101 1.6 4.8 0.00 0.00 0.00 99 1011.4
20260505110658 11 42 0.0 3.2 0.00 0.00 0.00 99 1011.3
20260505110156 11 124 0.0 3.2 0.00 0.00 0.00 99 1011.2
20260505102131 10 59 1.6 3.2 0.00 0.00 0.00 99 1010.8
20260505101630 10 134 0.0 3.2 0.00 0.00 0.00 99 1010.7
20260505101126 10 203 1.6 4.8 0.00 0.00 0.00 99 1010.6
20260505100622 10 217 0.0 3.2 0.00 0.00 0.00 99 1010.8
20260505100119 10 235 3.2 4.8 0.00 0.00 0.00 99 1010.7
20260505095615 10 223 3.2 4.8 0.00 0.00 0.00 99 1010.8
20260505095112 10 202 0.0 4.8 0.00 0.00 0.00 99 1010.8
20260505094608 10 278 1.6 4.8 0.00 0.00 0.00 99 1010.8
20260505094104 10 319 3.2 6.4 0.00 0.00 0.00 99 1010.6
20260505093601 10 289 1.6 4.8 0.00 0.00 0.00 99 1010.8
20260505093058 10 250 1.6 8.0 0.00 0.00 0.00 99 1010.7
20260505092555 11 293 1.6 3.2 0.00 0.00 0.00 99 1010.8
20260505092054 11 62 0.0 4.8 0.00 0.00 0.00 99 1010.5
20260505091550 11 238 1.6 3.2 0.00 0.00 0.00 99 1010.6
20260505091049 11 209 0.0 3.2 0.00 0.00 0.00 99 1010.5
20260505090547 11 37 1.6 3.2 0.00 0.00 0.00 99 1010.6
20260505090044 11 34 0.0 3.2 0.00 0.00 0.00 99 1010.7
20260505085542 11 234 0.0 3.2 0.00 0.00 0.00 99 1010.4
20260505085040 11 175 0.0 4.8 0.00 0.00 0.00 99 1010.4
20260505084537 11 278 0.0 3.2 0.00 0.00 0.00 99 1010.6
20260505084036 11 139 1.6 3.2 0.00 0.00 0.00 99 1010.5
20260505083532 11 149 0.0 4.8 0.00 0.00 0.00 99 1010.5
20260505083029 12 232 1.6 3.2 0.00 0.00 0.00 99 1010.6
20260505082525 12 224 0.0 4.8 0.00 0.00 0.00 99 1010.8
20260505082021 12 309 1.6 4.8 0.00 0.00 0.00 99 1010.6
20260505081518 12 35 1.6 3.2 0.00 0.00 0.00 99 1010.7